TimeCDT,TemperatureF,Dew PointF,Humidity,Sea Level PressureIn,VisibilityMPH,Wind Direction,Wind SpeedMPH,Gust SpeedMPH,PrecipitationIn,Events,Conditions,WindDirDegrees,DateUTC
12:13 AM,23.0,17.6,80,30.25,10.0,West,4.6,-,N/A,,Clear,270,2012-10-07 05:13:00
12:33 AM,23.0,17.6,80,30.24,10.0,Calm,Calm,-,N/A,,Clear,0,2012-10-07 05:33:00
12:52 AM,23.0,19.4,86,30.24,10.0,Calm,Calm,-,N/A,,Clear,0,2012-10-07 05:52:00
1:13 AM,24.8,19.4,80,30.23,10.0,Calm,Calm,-,N/A,,Clear,0,2012-10-07 06:13:00
1:33 AM,21.2,17.6,86,30.23,10.0,Calm,Calm,-,N/A,,Clear,0,2012-10-07 06:33:00
1:52 AM,23.0,17.6,80,30.23,10.0,Calm,Calm,-,N/A,,Clear,0,2012-10-07 06:52:00
2:13 AM,24.8,19.4,80,30.23,10.0,Calm,Calm,-,N/A,,Clear,0,2012-10-07 07:13:00
2:33 AM,21.2,17.6,86,30.23,10.0,Calm,Calm,-,N/A,,Clear,0,2012-10-07 07:33:00
2:52 AM,23.0,19.4,86,30.22,10.0,Calm,Calm,-,N/A,,Clear,0,2012-10-07 07:52:00
3:13 AM,21.2,17.6,86,30.21,10.0,Calm,Calm,-,N/A,,Clear,0,2012-10-07 08:13:00
3:52 AM,19.4,15.8,86,30.21,10.0,Calm,Calm,-,N/A,,Clear,0,2012-10-07 08:52:00
4:13 AM,21.2,17.6,86,30.20,10.0,Calm,Calm,-,N/A,,Clear,0,2012-10-07 09:13:00
4:33 AM,21.2,17.6,86,30.19,10.0,Calm,Calm,-,N/A,,Clear,0,2012-10-07 09:33:00
4:52 AM,21.2,17.6,86,30.19,10.0,Calm,Calm,-,N/A,,Clear,0,2012-10-07 09:52:00
5:13 AM,19.4,15.8,86,30.19,10.0,Calm,Calm,-,N/A,,Clear,0,2012-10-07 10:13:00
5:32 AM,17.6,15.8,93,30.18,10.0,Calm,Calm,-,N/A,,Clear,0,2012-10-07 10:32:00
5:52 AM,19.4,17.6,93,30.17,10.0,SSW,3.5,-,N/A,,Clear,210,2012-10-07 10:52:00
6:13 AM,21.2,17.6,86,30.17,10.0,SW,5.8,-,N/A,,Clear,230,2012-10-07 11:13:00
6:32 AM,21.2,15.8,80,30.17,10.0,Calm,Calm,-,N/A,,Clear,0,2012-10-07 11:32:00
6:53 AM,21.2,17.6,86,30.17,10.0,Calm,Calm,-,N/A,,Clear,0,2012-10-07 11:53:00
7:12 AM,23.0,19.4,86,30.17,10.0,SSW,5.8,-,N/A,,Clear,200,2012-10-07 12:12:00
7:32 AM,23.0,19.4,86,30.17,10.0,SSW,4.6,-,N/A,,Clear,210,2012-10-07 12:32:00
7:53 AM,24.8,19.4,80,30.17,10.0,SSW,5.8,-,N/A,,Clear,200,2012-10-07 12:53:00
8:12 AM,26.6,21.2,80,30.17,10.0,SSW,3.5,-,N/A,,Clear,200,2012-10-07 13:12:00
8:32 AM,28.4,21.2,74,30.16,10.0,SSW,5.8,-,N/A,,Clear,200,2012-10-07 13:32:00
8:53 AM,28.4,21.2,74,30.16,10.0,SSW,5.8,-,N/A,,Clear,210,2012-10-07 13:53:00
9:12 AM,32.0,23.0,69,30.15,10.0,SSW,8.1,-,N/A,,Clear,210,2012-10-07 14:12:00
9:32 AM,33.8,23.0,65,30.15,10.0,SSW,9.2,-,N/A,,Clear,210,2012-10-07 14:32:00
9:52 AM,37.4,23.0,56,30.14,10.0,SW,10.4,-,N/A,,Clear,220,2012-10-07 14:52:00
10:12 AM,39.2,21.2,49,30.14,10.0,SSW,10.4,16.1,N/A,,Clear,210,2012-10-07 15:12:00
10:33 AM,42.8,21.2,42,30.13,10.0,SSW,11.5,-,N/A,,Clear,210,2012-10-07 15:33:00
10:52 AM,44.6,19.4,37,30.12,10.0,SSW,17.3,-,N/A,,Clear,200,2012-10-07 15:52:00
11:12 AM,46.4,19.4,34,30.12,10.0,SSW,16.1,-,N/A,,Clear,200,2012-10-07 16:12:00
11:33 AM,46.4,19.4,34,30.11,10.0,SSW,16.1,23.0,N/A,,Clear,200,2012-10-07 16:33:00
11:52 AM,48.2,19.4,32,30.10,10.0,SSW,17.3,25.3,N/A,,Clear,210,2012-10-07 16:52:00
12:12 PM,48.2,17.6,30,30.09,10.0,SSW,17.3,21.9,N/A,,Clear,210,2012-10-07 17:12:00
12:33 PM,51.8,19.4,28,30.07,10.0,SSW,17.3,23.0,N/A,,Clear,200,2012-10-07 17:33:00
12:52 PM,51.8,19.4,28,30.07,10.0,SW,12.7,24.2,N/A,,Clear,220,2012-10-07 17:52:00
1:33 PM,53.6,19.4,26,30.04,10.0,West,13.8,18.4,N/A,,Clear,260,2012-10-07 18:33:00
1:52 PM,53.6,17.6,24,30.03,10.0,WSW,13.8,26.5,N/A,,Clear,250,2012-10-07 18:52:00
2:12 PM,53.6,17.6,24,30.01,10.0,SW,12.7,21.9,N/A,,Clear,220,2012-10-07 19:12:00
2:33 PM,53.6,17.6,24,30.00,10.0,SW,16.1,20.7,N/A,,Clear,220,2012-10-07 19:33:00
2:52 PM,53.6,15.8,22,30.00,10.0,SW,13.8,24.2,N/A,,Clear,230,2012-10-07 19:52:00
3:12 PM,55.4,15.8,21,29.99,10.0,WSW,13.8,21.9,N/A,,Clear,240,2012-10-07 20:12:00
3:33 PM,55.4,17.6,23,29.98,10.0,WSW,13.8,24.2,N/A,,Clear,240,2012-10-07 20:33:00
3:52 PM,55.4,17.6,23,29.97,10.0,SW,15.0,20.7,N/A,,Clear,220,2012-10-07 20:52:00
4:12 PM,55.4,17.6,23,29.96,10.0,SW,12.7,24.2,N/A,,Clear,230,2012-10-07 21:12:00
4:32 PM,55.4,15.8,21,29.95,10.0,WSW,13.8,-,N/A,,Clear,240,2012-10-07 21:32:00
4:52 PM,55.4,15.8,21,29.95,10.0,SW,15.0,23.0,N/A,,Clear,230,2012-10-07 21:52:00
5:13 PM,55.4,17.6,23,29.94,10.0,SW,13.8,18.4,N/A,,Clear,230,2012-10-07 22:13:00
5:32 PM,55.4,15.8,21,29.94,10.0,SW,11.5,-,N/A,,Clear,220,2012-10-07 22:32:00
5:52 PM,53.6,17.6,24,29.94,10.0,SW,11.5,-,N/A,,Clear,220,2012-10-07 22:52:00
6:13 PM,53.6,17.6,24,29.93,10.0,SW,6.9,-,N/A,,Clear,220,2012-10-07 23:13:00
6:32 PM,51.8,17.6,26,29.93,10.0,SSW,6.9,-,N/A,,Clear,200,2012-10-07 23:32:00
6:52 PM,50.0,17.6,28,29.92,10.0,SSW,5.8,-,N/A,,Clear,200,2012-10-07 23:52:00
7:13 PM,46.4,17.6,32,29.92,10.0,South,4.6,-,N/A,,Clear,190,2012-10-08 00:13:00
7:33 PM,46.4,19.4,34,29.92,10.0,South,3.5,-,N/A,,Clear,170,2012-10-08 00:33:00
7:53 PM,44.6,17.6,34,29.91,10.0,SSE,4.6,-,N/A,,Clear,160,2012-10-08 00:53:00
8:13 PM,42.8,17.6,36,29.91,10.0,SSE,4.6,-,N/A,,Clear,160,2012-10-08 01:13:00
8:32 PM,42.8,19.4,39,29.90,10.0,SSE,3.5,-,N/A,,Clear,160,2012-10-08 01:32:00
8:53 PM,41.0,21.2,45,29.91,10.0,South,3.5,-,N/A,,Clear,170,2012-10-08 01:53:00
9:13 PM,39.2,19.4,45,29.90,10.0,Calm,Calm,-,N/A,,Scattered Clouds,0,2012-10-08 02:13:00
9:32 PM,41.0,19.4,42,29.90,10.0,South,5.8,-,N/A,,Scattered Clouds,180,2012-10-08 02:32:00
9:53 PM,39.2,19.4,45,29.90,10.0,South,5.8,-,N/A,,Clear,180,2012-10-08 02:53:00
10:13 PM,39.2,19.4,45,29.90,10.0,South,6.9,-,N/A,,Clear,180,2012-10-08 03:13:00
10:32 PM,42.8,19.4,39,29.89,10.0,South,11.5,-,N/A,,Clear,190,2012-10-08 03:32:00
10:53 PM,42.8,19.4,39,29.88,10.0,South,10.4,-,N/A,,Clear,190,2012-10-08 03:53:00
11:13 PM,41.0,21.2,45,29.88,10.0,SSW,10.4,-,N/A,,Clear,200,2012-10-08 04:13:00
11:32 PM,41.0,21.2,45,29.87,10.0,SSW,10.4,-,N/A,,Clear,200,2012-10-08 04:32:00
11:53 PM,41.0,21.2,45,29.86,10.0,SSW,11.5,-,N/A,,Scattered Clouds,200,2012-10-08 04:53:00